• en Suisse
  • Liste des pays
  • À 7 jours
  • Température de l'eau
  • Carte satellitaire
  • Carte météo
  • Widgets météo
  • user-avatar
    Se connecter

    Météo par heure à Lomovo

    Ce jour, 21 Août, Mardi

    Heure Température Précipitation Vent Pression Humidité
    00:00 +19°C° 0 mm 1 m/s 747 mmHg 82%
    01:00 +18°C° 0 mm 2 m/s 747 mmHg 84%
    02:00 +18°C° 0 mm 2 m/s 747 mmHg 86%
    03:00 +17°C° 0 mm 2 m/s 746 mmHg 88%
    04:00 +17°C° 0 mm 3 m/s 746 mmHg 88%
    05:00 +17°C° 0 mm 3 m/s 745 mmHg 89%
    06:00 +17°C° 0 mm 3 m/s 745 mmHg 89%
    07:00 +19°C° 0 mm 4 m/s 744 mmHg 81%
    08:00 +21°C° 0 mm 5 m/s 744 mmHg 73%
    09:00 +23°C° 0 mm 6 m/s 744 mmHg 65%
    10:00 +24°C° 0,6 mm 6 m/s 743 mmHg 65%
    11:00 +24°C° 0,6 mm 6 m/s 743 mmHg 66%
    12:00 +26°C° 0,6 mm 7 m/s 742 mmHg 66%
    13:00 +24°C° 1,4 mm 6 m/s 742 mmHg 70%
    14:00 +23°C° 1,4 mm 6 m/s 742 mmHg 75%
    15:00 +22°C° 1,4 mm 6 m/s 742 mmHg 79%
    16:00 +22°C° 0,5 mm 5 m/s 742 mmHg 79%
    17:00 +21°C° 0,5 mm 4 m/s 742 mmHg 80%
    18:00 +20°C° 0,5 mm 4 m/s 742 mmHg 81%
    19:00 +19°C° 0 mm 3 m/s 742 mmHg 81%
    20:00 +18°C° 0 mm 3 m/s 743 mmHg 81%
    21:00 +16°C° 0 mm 3 m/s 743 mmHg 82%
    22:00 +14°C° 0 mm 3 m/s 744 mmHg 82%
    23:00 +14°C° 0 mm 3 m/s 744 mmHg 81%

    Demain, 22 Août, Mercredi

    Heure Température Précipitation Vent Pression Humidité
    00:00 +13°C° 0 mm 3 m/s 744 mmHg 81%
    01:00 +12°C° 0 mm 3 m/s 745 mmHg 82%
    02:00 +11°C° 0 mm 3 m/s 745 mmHg 82%
    03:00 +11°C° 0 mm 3 m/s 745 mmHg 82%
    04:00 +11°C° 0 mm 3 m/s 746 mmHg 83%
    05:00 +11°C° 0 mm 3 m/s 746 mmHg 83%
    06:00 +10°C° 0 mm 3 m/s 746 mmHg 83%
    07:00 +12°C° 0 mm 4 m/s 747 mmHg 76%
    08:00 +13°C° 0 mm 4 m/s 747 mmHg 69%
    09:00 +15°C° 0 mm 5 m/s 747 mmHg 62%
    10:00 +16°C° 0 mm 5 m/s 747 mmHg 57%
    11:00 +17°C° 0 mm 5 m/s 748 mmHg 53%
    12:00 +19°C° 0 mm 5 m/s 748 mmHg 48%
    13:00 +20°C° 0 mm 5 m/s 748 mmHg 45%
    14:00 +20°C° 0 mm 5 m/s 749 mmHg 43%
    15:00 +21°C° 0 mm 5 m/s 749 mmHg 41%
    16:00 +20°C° 0 mm 5 m/s 749 mmHg 43%
    17:00 +19°C° 0 mm 4 m/s 750 mmHg 46%
    18:00 +18°C° 0 mm 3 m/s 750 mmHg 48%
    19:00 +17°C° 0 mm 3 m/s 751 mmHg 53%
    20:00 +14°C° 0 mm 3 m/s 751 mmHg 58%
    21:00 +13°C° 0 mm 2 m/s 752 mmHg 63%
    22:00 +13°C° 0 mm 2 m/s 752 mmHg 66%
    23:00 +12°C° 0 mm 2 m/s 753 mmHg 69%

    Après-demain, 23 Août, Jeudi

    Heure Température Précipitation Vent Pression Humidité
    00:00 +10°C° 0 mm 2 m/s 753 mmHg 72%
    01:00 +10°C° 0 mm 2 m/s 753 mmHg 74%
    02:00 +9°C° 0 mm 2 m/s 754 mmHg 76%
    03:00 +9°C° 0 mm 2 m/s 754 mmHg 79%
    04:00 +9°C° 0 mm 2 m/s 754 mmHg 79%
    05:00 +9°C° 0 mm 2 m/s 755 mmHg 80%
    06:00 +8°C° 0 mm 2 m/s 755 mmHg 81%
    07:00 +12°C° 0 mm 2 m/s 755 mmHg 72%
    08:00 +14°C° 0 mm 2 m/s 755 mmHg 62%
    09:00 +16°C° 0 mm 2 m/s 756 mmHg 53%
    10:00 +17°C° 0 mm 2 m/s 755 mmHg 48%
    11:00 +19°C° 0 mm 3 m/s 755 mmHg 43%
    12:00 +20°C° 0 mm 3 m/s 755 mmHg 38%
    13:00 +20°C° 0 mm 3 m/s 755 mmHg 37%
    14:00 +21°C° 0 mm 3 m/s 755 mmHg 36%
    15:00 +21°C° 0 mm 3 m/s 755 mmHg 35%
    16:00 +21°C° 0 mm 2 m/s 755 mmHg 39%
    17:00 +20°C° 0 mm 2 m/s 755 mmHg 43%
    18:00 +21°C° 0 mm 1 m/s 755 mmHg 46%
    19:00 +19°C° 0 mm 1 m/s 755 mmHg 52%
    20:00 +16°C° 0 mm 1 m/s 755 mmHg 57%
    21:00 +14°C° 0 mm 1 m/s 755 mmHg 62%
    22:00 +13°C° 0 mm 1 m/s 755 mmHg 65%
    23:00 +13°C° 0 mm 1 m/s 755 mmHg 67%

    24 Août, Vendredi

    Heure Température Précipitation Vent Pression Humidité
    00:00 +12°C° 0 mm 1 m/s 755 mmHg 69%
    01:00 +12°C° 0 mm 1 m/s 755 mmHg 71%
    02:00 +12°C° 0 mm 1 m/s 755 mmHg 73%
    03:00 +11°C° 0 mm 1 m/s 755 mmHg 75%
    04:00 +11°C° 0 mm 1 m/s 755 mmHg 76%
    05:00 +11°C° 0 mm 1 m/s 755 mmHg 76%
    06:00 +11°C° 0 mm 1 m/s 755 mmHg 77%
    07:00 +13°C° 0 mm 2 m/s 755 mmHg 70%
    08:00 +16°C° 0 mm 2 m/s 755 mmHg 62%
    09:00 +18°C° 0 mm 2 m/s 755 mmHg 54%
    10:00 +19°C° 0 mm 2 m/s 755 mmHg 49%
    11:00 +21°C° 0 mm 3 m/s 755 mmHg 45%
    12:00 +22°C° 0 mm 3 m/s 755 mmHg 40%
    13:00 +24°C° 0 mm 3 m/s 754 mmHg 39%
    14:00 +24°C° 0 mm 3 m/s 754 mmHg 39%
    15:00 +24°C° 0 mm 3 m/s 754 mmHg 38%
    16:00 +24°C° 0 mm 3 m/s 753 mmHg 42%
    17:00 +23°C° 0 mm 2 m/s 753 mmHg 46%
    18:00 +23°C° 0 mm 2 m/s 753 mmHg 50%
    19:00 +20°C° 0 mm 2 m/s 753 mmHg 56%
    20:00 +18°C° 0 mm 2 m/s 753 mmHg 63%
    21:00 +15°C° 0 mm 2 m/s 753 mmHg 69%
    22:00 +15°C° 0 mm 2 m/s 753 mmHg 72%
    23:00 +14°C° 0 mm 2 m/s 753 mmHg 74%

    25 Août, Samedi

    Heure Température Précipitation Vent Pression Humidité
    00:00 +14°C° 0 mm 2 m/s 753 mmHg 77%
    01:00 +13°C° 0 mm 2 m/s 753 mmHg 78%
    02:00 +13°C° 0 mm 2 m/s 752 mmHg 79%
    03:00 +13°C° 0 mm 2 m/s 752 mmHg 80%
    04:00 +12°C° 0 mm 2 m/s 752 mmHg 80%
    05:00 +12°C° 0 mm 2 m/s 752 mmHg 80%
    06:00 +12°C° 0 mm 2 m/s 752 mmHg 80%
    07:00 +14°C° 0 mm 2 m/s 752 mmHg 71%
    08:00 +17°C° 0 mm 3 m/s 752 mmHg 63%
    09:00 +19°C° 0 mm 3 m/s 752 mmHg 54%
    10:00 +21°C° 0 mm 3 m/s 752 mmHg 49%
    11:00 +23°C° 0 mm 4 m/s 752 mmHg 44%
    12:00 +25°C° 0 mm 4 m/s 751 mmHg 39%
    13:00 +26°C° 0 mm 4 m/s 751 mmHg 39%
    14:00 +26°C° 0 mm 4 m/s 751 mmHg 38%
    15:00 +26°C° 0 mm 5 m/s 750 mmHg 37%
    16:00 +26°C° 0 mm 4 m/s 750 mmHg 41%
    17:00 +25°C° 0 mm 3 m/s 750 mmHg 45%
    18:00 +24°C° 0 mm 3 m/s 750 mmHg 49%
    19:00 +21°C° 0 mm 3 m/s 750 mmHg 55%
    20:00 +19°C° 0 mm 3 m/s 750 mmHg 61%
    21:00 +17°C° 0 mm 2 m/s 750 mmHg 67%
    22:00 +16°C° 0 mm 2 m/s 750 mmHg 68%
    23:00 +16°C° 0 mm 2 m/s 750 mmHg 70%

    26 Août, Dimanche

    Heure Température Précipitation Vent Pression Humidité
    00:00 +15°C° 0 mm 2 m/s 750 mmHg 72%
    01:00 +15°C° 0 mm 2 m/s 750 mmHg 72%
    02:00 +14°C° 0 mm 2 m/s 749 mmHg 73%
    03:00 +14°C° 0 mm 2 m/s 749 mmHg 73%
    04:00 +14°C° 0 mm 2 m/s 749 mmHg 73%
    05:00 +13°C° 0 mm 2 m/s 749 mmHg 73%
    06:00 +13°C° 0 mm 2 m/s 749 mmHg 72%
    07:00 +15°C° 0 mm 2 m/s 749 mmHg 65%
    08:00 +18°C° 0 mm 3 m/s 749 mmHg 57%
    09:00 +20°C° 0 mm 3 m/s 749 mmHg 50%
    10:00 +22°C° 0 mm 4 m/s 749 mmHg 44%
    11:00 +25°C° 0 mm 4 m/s 749 mmHg 38%
    12:00 +27°C° 0 mm 4 m/s 749 mmHg 32%
    13:00 +27°C° 0 mm 4 m/s 748 mmHg 32%
    14:00 +28°C° 0 mm 4 m/s 748 mmHg 31%
    15:00 +28°C° 0 mm 4 m/s 748 mmHg 31%
    16:00 +27°C° 0 mm 3 m/s 748 mmHg 35%
    17:00 +26°C° 0 mm 3 m/s 748 mmHg 39%
    18:00 +25°C° 0 mm 2 m/s 747 mmHg 44%
    19:00 +23°C° 0 mm 2 m/s 748 mmHg 48%
    20:00 +20°C° 0 mm 2 m/s 748 mmHg 53%
    21:00 +18°C° 0 mm 2 m/s 748 mmHg 57%
    22:00 +18°C° 0 mm 2 m/s 748 mmHg 58%
    23:00 +17°C° 0 mm 2 m/s 748 mmHg 59%
    Voir plus